Location: Nitra
(48.3167°N, 18.0833°E)
Time: 15:09:39
(UTC+02:00)

N. Korean satellite - Visible Passes

Search period start: 23 September 2020 00:00
Search period end: 03 October 2020 00:00
Orbit: 455 x 503 km, 97.2° (Epoch: 22 September)

Date Brightness Start Highest point End Pass type
(mag) Time Alt. Az. Time Alt. Az. Time Alt. Az.
25 Sep 9.1 05:46:18 10° NE 05:49:25 26° E 05:52:30 10° SSE visible
26 Sep 9.9 05:21:13 10° ENE 05:23:12 14° E 05:25:09 10° ESE visible
28 Sep 8.3 06:01:21 10° NNE 06:04:47 39° E 06:08:09 10° SSE visible
29 Sep 9.6 05:35:51 10° NE 05:38:37 20° E 05:41:19 10° SE visible
30 Sep 10.4 05:11:37 10° ENE 05:12:19 10° E 05:13:00 10° E visible
01 Oct 7.3 06:16:30 10° NNE 06:20:06 60° E 06:23:36 10° S visible
02 Oct 8.9 05:50:46 10° NNE 05:53:58 29° E 05:57:05 10° SSE visible
